This is the latest recevied weather packets stored in our database for station/object JE7UPL-13. If no packets are shown the sender has not sent any weather packets the latest 10 day(s).
| Time | Temp. | Humidity | Pressure | Rain* | Wind** | Luminosity | Snow |
|---|---|---|---|---|---|---|---|
| 1777886105 | 15° C | 66% | 991.1 hPa | 0 mm | - | - | - |
| 1777885205 | 15° C | 62% | 990.6 hPa | 0 mm | - | - | - |
| 1777884306 | 16.11° C | 61% | 990.6 hPa | 0 mm | - | - | - |
| 1777883406 | 16.11° C | 62% | 990.1 hPa | 0 mm | - | - | - |
| 1777882505 | 16.67° C | 60% | 989.9 hPa | 0 mm | - | - | - |
| 1777881606 | 17.22° C | 60% | 990 hPa | 0 mm | - | - | - |
| 1777880705 | 16.67° C | 64% | 990 hPa | 0 mm | - | - | - |
| 1777879806 | 16.11° C | 70% | 990 hPa | 0 mm | - | - | - |
| 1777878905 | 15.56° C | 72% | 989.9 hPa | 0 mm | - | - | - |
| 1777878006 | 15.56° C | 71% | 990.1 hPa | 0 mm | - | - | - |
| 1777877105 | 16.11° C | 67% | 990.2 hPa | 0 mm | - | - | - |
| 1777876205 | 16.11° C | 67% | 990.1 hPa | 0 mm | - | - | - |
| 1777875305 | 16.67° C | 66% | 990.1 hPa | 0 mm | - | - | - |
| 1777874405 | 16.67° C | 66% | 990.2 hPa | 0 mm | - | - | - |
| 1777873505 | 16.67° C | 65% | 989.9 hPa | 0 mm | - | - | - |
| 1777872605 | 16.67° C | 64% | 989.7 hPa | 0 mm | - | - | - |
| 1777871705 | 17.78° C | 61% | 989.7 hPa | 0 mm | - | - | - |
| 1777870806 | 18.89° C | 60% | 989.8 hPa | 0 mm | - | - | - |
| 1777869906 | 18.33° C | 60% | 989.5 hPa | 0 mm | - | - | - |
| 1777869005 | 18.89° C | 60% | 989.5 hPa | 0 mm | - | - | - |
| 1777868105 | 18.33° C | 60% | 989.7 hPa | 0 mm | - | - | - |
| 1777867206 | 18.89° C | 63% | 989.5 hPa | 0 mm | - | - | - |
| 1777866305 | 17.78° C | 63% | 989.3 hPa | 0 mm | - | - | - |
| 1777865405 | 18.89° C | 63% | 989.2 hPa | 0 mm | - | - | - |
| 1777864506 | 18.33° C | 62% | 989.3 hPa | 0 mm | - | - | - |
* Rain latest hour (hover to see other rain measurements)
** Current wind speed in m/s (hover to see current wind gust speed)